| time (UTC) | temp C | wind direction | speed KPH | gust KPH | rain 1hr cm | rain 24hr cm | rain mn cm | humidity % | barometer mb |
| 20260507033710 | 2 | 121 | 0.0 | 3.2 | 0.00 | 0.05 | 0.05 | 68 | 1019.8 |
| 20260507032701 | 2 | 145 | 0.0 | 4.8 | 0.00 | 0.05 | 0.05 | 66 | 1019.4 |
| 20260507031705 | 2 | 164 | 0.0 | 3.2 | 0.00 | 0.05 | 0.05 | 67 | 1018.9 |
| 20260507030713 | 3 | 145 | 0.0 | 0.0 | 0.00 | 0.05 | 0.05 | 65 | 1018.7 |
| 20260507024531 | 5 | 212 | 0.0 | 0.0 | 0.00 | 0.05 | 0.05 | 55 | 1018.1 |
| 20260507023533 | 5 | 213 | 0.0 | 0.0 | 0.00 | 0.05 | 0.05 | 50 | 1018.0 |
| 20260507022523 | 6 | 252 | 0.0 | 0.0 | 0.00 | 0.05 | 0.05 | 46 | 1017.6 |
| 20260507021539 | 7 | 243 | 0.0 | 3.2 | 0.00 | 0.05 | 0.05 | 42 | 1017.4 |
| 20260507020527 | 7 | 290 | 0.0 | 8.0 | 0.00 | 0.05 | 0.05 | 39 | 1017.1 |
| 20260507015454 | 8 | 342 | 0.0 | 4.8 | 0.00 | 0.05 | 0.05 | 37 | 1016.9 |
| 20260507014451 | 8 | 340 | 0.0 | 8.0 | 0.00 | 0.05 | 0.05 | 35 | 1016.8 |
| 20260507013453 | 10 | 278 | 1.6 | 8.0 | 0.00 | 0.05 | 0.05 | 32 | 1016.5 |
| 20260507012450 | 10 | 24 | 0.0 | 6.4 | 0.00 | 0.05 | 0.05 | 30 | 1016.4 |
| 20260507011448 | 10 | 325 | 1.6 | 12.9 | 0.00 | 0.05 | 0.05 | 30 | 1016.3 |
| 20260507010431 | 10 | 4 | 3.2 | 12.9 | 0.00 | 0.05 | 0.05 | 30 | 1016.0 |
| 20260507005450 | 11 | 9 | 1.6 | 11.3 | 0.00 | 0.05 | 0.05 | 31 | 1015.8 |
| 20260507004446 | 11 | 25 | 3.2 | 14.5 | 0.00 | 0.05 | 0.05 | 30 | 1015.7 |
| 20260507003429 | 11 | 302 | 3.2 | 14.5 | 0.00 | 0.05 | 0.05 | 30 | 1015.5 |
| 20260507001353 | 11 | 4 | 4.8 | 22.5 | 0.00 | 0.05 | 0.05 | 31 | 1015.2 |
| 20260507000343 | 11 | 16 | 6.4 | 22.5 | 0.00 | 0.05 | 0.05 | 31 | 1015.2 |
| 20260506235311 | 11 | 14 | 3.2 | 17.7 | 0.00 | 0.05 | 0.05 | 32 | 1015.0 |
| 20260506234314 | 11 | 359 | 8.0 | 17.7 | 0.00 | 0.05 | 0.05 | 31 | 1014.9 |
| 20260506233324 | 12 | 25 | 3.2 | 16.1 | 0.00 | 0.05 | 0.05 | 30 | 1014.6 |
| 20260506232337 | 11 | 304 | 4.8 | 16.1 | 0.00 | 0.05 | 0.05 | 31 | 1014.5 |
| 20260506231317 | 11 | 341 | 4.8 | 17.7 | 0.00 | 0.05 | 0.05 | 32 | 1014.3 |
| 20260506230332 | 12 | 274 | 4.8 | 17.7 | 0.00 | 0.05 | 0.05 | 31 | 1014.2 |
| 20260506225305 | 11 | 354 | 4.8 | 14.5 | 0.00 | 0.05 | 0.05 | 31 | 1013.9 |
| 20260506224233 | 12 | 328 | 3.2 | 22.5 | 0.00 | 0.08 | 0.05 | 32 | 1013.9 |
| 20260506223213 | 11 | 21 | 8.0 | 22.5 | 0.00 | 0.08 | 0.05 | 32 | 1013.8 |
| 20260506221119 | 11 | 324 | 1.6 | 9.7 | 0.00 | 0.08 | 0.05 | 32 | 1013.9 |
| 20260506220052 | 11 | 304 | 4.8 | 12.9 | 0.00 | 0.08 | 0.05 | 32 | 1013.7 |
| 20260506215036 | 10 | 353 | 0.0 | 8.0 | 0.00 | 0.08 | 0.05 | 34 | 1013.7 |
| 20260506214045 | 10 | 306 | 0.0 | 4.8 | 0.00 | 0.08 | 0.05 | 39 | 1013.7 |
| 20260506211853 | 10 | 240 | 0.0 | 12.9 | 0.00 | 0.08 | 0.05 | 37 | 1013.8 |
| 20260506210856 | 10 | 266 | 1.6 | 12.9 | 0.00 | 0.08 | 0.05 | 36 | 1013.8 |
| 20260506205848 | 11 | 309 | 1.6 | 6.4 | 0.00 | 0.08 | 0.05 | 39 | 1013.7 |
| 20260506204910 | 11 | 101 | 0.0 | 11.3 | 0.00 | 0.08 | 0.05 | 44 | 1013.6 |
| 20260506203901 | 8 | 169 | 3.2 | 11.3 | 0.00 | 0.08 | 0.05 | 48 | 1013.6 |
| 20260506201739 | 7 | 297 | 1.6 | 6.4 | 0.00 | 0.08 | 0.05 | 54 | 1013.5 |
| 20260506200721 | 7 | 250 | 0.0 | 8.0 | 0.00 | 0.08 | 0.05 | 56 | 1013.5 |
| 20260506195704 | 7 | 100 | 0.0 | 8.0 | 0.00 | 0.08 | 0.05 | 60 | 1013.3 |
| 20260506194637 | 7 | 44 | 3.2 | 11.3 | 0.00 | 0.08 | 0.05 | 62 | 1013.2 |
| 20260506193648 | 6 | 120 | 1.6 | 11.3 | 0.00 | 0.08 | 0.05 | 64 | 1013.3 |
| 20260506192712 | 6 | 50 | 1.6 | 11.3 | 0.00 | 0.08 | 0.05 | 65 | 1013.3 |
| 20260506191734 | 6 | 190 | 3.2 | 11.3 | 0.00 | 0.08 | 0.05 | 63 | 1013.2 |
| 20260506190722 | 7 | 315 | 3.2 | 14.5 | 0.00 | 0.08 | 0.05 | 62 | 1012.8 |
| 20260506184628 | 9 | 351 | 4.8 | 12.9 | 0.00 | 0.08 | 0.05 | 47 | 1012.6 |
| 20260506183602 | 10 | 16 | 3.2 | 11.3 | 0.00 | 0.08 | 0.05 | 49 | 1012.3 |
| 20260506182618 | 9 | 319 | 4.8 | 19.3 | 0.00 | 0.08 | 0.05 | 50 | 1012.2 |
| 20260506181604 | 8 | 37 | 4.8 | 19.3 | 0.00 | 0.08 | 0.05 | 52 | 1012.1 |
| 20260506180531 | 7 | 33 | 6.4 | 17.7 | 0.00 | 0.08 | 0.05 | 54 | 1012.0 |
| 20260506175533 | 7 | 353 | 4.8 | 16.1 | 0.00 | 0.08 | 0.05 | 57 | 1012.0 |
| 20260506174557 | 7 | 358 | 6.4 | 14.5 | 0.00 | 0.08 | 0.05 | 58 | 1011.9 |
| 20260506173539 | 7 | 15 | 4.8 | 17.7 | 0.00 | 0.08 | 0.05 | 60 | 1011.7 |
| 20260506171409 | 7 | 353 | 6.4 | 20.9 | 0.00 | 0.08 | 0.05 | 62 | 1011.3 |
| 20260506170354 | 7 | 47 | 6.4 | 20.9 | 0.00 | 0.08 | 0.05 | 60 | 1011.3 |
| 20260506165333 | 7 | 340 | 6.4 | 16.1 | 0.00 | 0.08 | 0.05 | 63 | 1011.0 |
| 20260506163242 | 6 | 56 | 4.8 | 16.1 | 0.00 | 0.08 | 0.05 | 71 | 1010.8 |
| 20260506162238 | 5 | 29 | 3.2 | 16.1 | 0.00 | 0.08 | 0.05 | 76 | 1010.6 |
| 20260506153953 | 3 | 319 | 6.4 | 16.1 | 0.00 | 0.08 | 0.05 | 86 | 1010.1 |
| 20260506152918 | 3 | 250 | 3.2 | 12.9 | 0.00 | 0.08 | 0.05 | 89 | 1009.8 |
| 20260506151845 | 3 | 49 | 1.6 | 9.7 | 0.00 | 0.08 | 0.05 | 91 | 1009.8 |
| 20260506150823 | 3 | 339 | 0.0 | 1.6 | 0.00 | 0.08 | 0.05 | 94 | 1009.7 |
| 20260506145847 | 2 | 322 | 0.0 | 0.0 | 0.00 | 0.08 | 0.05 | 95 | 1009.6 |
| 20260506144821 | 2 | 343 | 0.0 | 4.8 | 0.00 | 0.08 | 0.05 | 95 | 1009.5 |
| 20260506143821 | 2 | 343 | 1.6 | 6.4 | 0.10 | 0.08 | 0.05 | 96 | 1009.3 |
| 20260506142749 | 1 | 347 | 0.0 | 4.8 | 0.00 | 0.05 | 0.03 | 96 | 1009.2 |
| 20260506141723 | 1 | 357 | 0.0 | 4.8 | 0.00 | 0.03 | 0.00 | 95 | 1008.6 |
| 20260506125539 | 2 | 186 | 0.0 | 9.7 | 0.00 | 0.03 | 0.00 | 73 | 1007.7 |
| 20260506123347 | 2 | 165 | 1.6 | 4.8 | 0.00 | 0.03 | 0.00 | 71 | 1006.4 |
| 20260506122410 | 3 | 219 | 3.2 | 16.1 | 0.00 | 0.03 | 0.00 | 70 | 1006.3 |
| 20260506121358 | 3 | 172 | 0.0 | 9.7 | 0.00 | 0.03 | 0.00 | 70 | 1005.7 |
| 20260506115256 | 3 | 89 | 0.0 | 0.0 | 0.00 | 0.03 | 0.00 | 68 | 1004.9 |
| 20260506114249 | 3 | 88 | 0.0 | 0.0 | 0.00 | 0.03 | 0.00 | 68 | 1004.6 |
| 20260506113254 | 3 | 89 | 0.0 | 0.0 | 0.00 | 0.03 | 0.00 | 68 | 1004.5 |
| 20260506112220 | 3 | 88 | 0.0 | 0.0 | 0.00 | 0.03 | 0.00 | 67 | 1004.3 |
| 20260506090659 | 4 | 135 | 0.0 | 0.0 | 0.00 | 0.03 | 0.00 | 81 | 1005.0 |
| 20260506084527 | 5 | 342 | 0.0 | 0.0 | 0.00 | 0.03 | 0.00 | 80 | 1005.3 |
| 20260506083527 | 5 | 342 | 0.0 | 0.0 | 0.00 | 0.03 | 0.00 | 81 | 1005.3 |
| 20260506082523 | 5 | 343 | 0.0 | 0.0 | 0.00 | 0.03 | 0.00 | 81 | 1005.2 |
| 20260506081545 | 5 | 342 | 0.0 | 0.0 | 0.00 | 0.03 | 0.00 | 82 | 1005.2 |
| 20260506080524 | 5 | 259 | 0.0 | 0.0 | 0.00 | 0.03 | 0.00 | 80 | 1005.0 |
| 20260506073527 | 5 | 259 | 0.0 | 1.6 | 0.00 | 0.03 | 0.00 | 80 | 1005.0 |
| 20260506072456 | 5 | 347 | 0.0 | 0.0 | 0.00 | 0.03 | 0.00 | 79 | 1005.1 |
| 20260506071444 | 6 | 347 | 0.0 | 0.0 | 0.00 | 0.03 | 0.00 | 79 | 1005.2 |
| 20260506070505 | 5 | 290 | 0.0 | 0.0 | 0.00 | 0.03 | 0.00 | 79 | 1005.1 |
| 20260506061244 | 6 | 261 | 0.0 | 0.0 | 0.00 | 0.10 | 0.00 | 77 | 1004.9 |
| 20260506051010 | 7 | 134 | 0.0 | 0.0 | 0.00 | 0.18 | 0.10 | 70 | 1004.8 |
| 20260506044946 | 7 | 124 | 0.0 | 0.0 | 0.00 | 0.23 | 0.10 | 70 | 1004.6 |
| 20260506043928 | 7 | 255 | 0.0 | 0.0 | 0.00 | 0.28 | 0.10 | 67 | 1004.6 |
| 20260506042933 | 8 | 163 | 0.0 | 0.0 | 0.00 | 0.28 | 0.10 | 66 | 1004.6 |
| 20260506040751 | 8 | 143 | 0.0 | 0.0 | 0.00 | 0.28 | 0.10 | 63 | 1004.4 |
| 20260506034657 | 8 | 6 | 1.6 | 8.0 | 0.00 | 0.28 | 0.10 | 60 | 1004.1 |